Time,TemperatureF,DewpointF,PressureIn,WindDirection,WindDirectionDegrees,WindSpeedMPH,WindSpeedGustMPH,Humidity,HourlyPrecipIn,Conditions,Clouds,dailyrainin,SoftwareType,DateUTC
2013-04-20 00:22:00,31.0,-99.9,-100.00,North,-999,-999.0,-999.0,-999,0.02,,,0.07,,2013-04-20 06:22:00,
2013-04-20 00:32:00,31.0,-99.9,-100.00,North,-999,-999.0,-999.0,-999,0.02,,,0.07,,2013-04-20 06:32:00,
2013-04-20 00:42:00,31.0,-99.9,-100.00,North,-999,-999.0,-999.0,-999,0.02,,,0.07,,2013-04-20 06:42:00,
2013-04-20 01:22:00,31.0,-99.9,-100.00,North,-999,-999.0,-999.0,-999,0.03,,,0.10,,2013-04-20 07:22:00,
2013-04-20 01:32:00,31.0,-99.9,-100.00,North,-999,-999.0,-999.0,-999,0.03,,,0.10,,2013-04-20 07:32:00,
2013-04-20 01:42:00,31.0,-99.9,-100.00,North,-999,-999.0,-999.0,-999,0.03,,,0.10,,2013-04-20 07:42:00,
2013-04-20 02:22:00,31.0,-99.9,-100.00,North,-999,-999.0,-999.0,-999,0.00,,,0.10,,2013-04-20 08:22:00,
2013-04-20 02:32:00,31.0,-99.9,-100.00,North,-999,-999.0,-999.0,-999,0.00,,,0.10,,2013-04-20 08:32:00,
2013-04-20 02:42:00,31.0,-99.9,-100.00,North,-999,-999.0,-999.0,-999,0.00,,,0.10,,2013-04-20 08:42:00,
2013-04-20 03:22:00,31.0,-99.9,-100.00,North,-999,-999.0,-999.0,-999,0.01,,,0.11,,2013-04-20 09:22:00,
2013-04-20 03:33:00,31.0,-99.9,-100.00,North,-999,-999.0,-999.0,-999,0.01,,,0.11,,2013-04-20 09:33:00,
2013-04-20 03:43:00,31.0,-99.9,-100.00,North,-999,-999.0,-999.0,-999,0.01,,,0.11,,2013-04-20 09:43:00,
2013-04-20 04:23:00,31.0,-99.9,-100.00,North,-999,-999.0,-999.0,-999,0.03,,,0.14,,2013-04-20 10:23:00,
2013-04-20 04:33:00,31.0,-99.9,-100.00,North,-999,-999.0,-999.0,-999,0.03,,,0.14,,2013-04-20 10:33:00,
2013-04-20 04:42:00,31.0,-99.9,-100.00,North,-999,-999.0,-999.0,-999,0.03,,,0.14,,2013-04-20 10:42:00,
2013-04-20 05:23:00,31.0,-99.9,-100.00,North,-999,-999.0,-999.0,-999,-99.99,,,0.12,,2013-04-20 11:23:00,
2013-04-20 05:32:00,31.0,-99.9,-100.00,North,-999,-999.0,-999.0,-999,-99.99,,,0.12,,2013-04-20 11:32:00,
2013-04-20 05:42:00,31.0,-99.9,-100.00,North,-999,-999.0,-999.0,-999,-99.99,,,0.12,,2013-04-20 11:42:00,
2013-04-20 06:23:00,30.0,-99.9,-100.00,North,-999,-999.0,-999.0,-999,0.01,,,0.13,,2013-04-20 12:23:00,
2013-04-20 06:32:00,30.0,-99.9,-100.00,North,-999,-999.0,-999.0,-999,0.01,,,0.13,,2013-04-20 12:32:00,
2013-04-20 06:42:00,30.0,-99.9,-100.00,North,-999,-999.0,-999.0,-999,0.01,,,0.13,,2013-04-20 12:42:00,
2013-04-20 07:22:00,30.0,-99.9,-100.00,North,-999,-999.0,-999.0,-999,0.02,,,0.15,,2013-04-20 13:22:00,
2013-04-20 07:32:00,30.0,-99.9,-100.00,North,-999,-999.0,-999.0,-999,0.02,,,0.15,,2013-04-20 13:32:00,
2013-04-20 07:42:00,30.0,-99.9,-100.00,North,-999,-999.0,-999.0,-999,0.02,,,0.15,,2013-04-20 13:42:00,
2013-04-20 08:22:00,32.0,-99.9,-100.00,North,-999,-999.0,-999.0,-999,0.00,,,0.15,,2013-04-20 14:22:00,
2013-04-20 08:32:00,32.0,-99.9,-100.00,North,-999,-999.0,-999.0,-999,0.00,,,0.15,,2013-04-20 14:32:00,
2013-04-20 08:42:00,32.0,-99.9,-100.00,North,-999,-999.0,-999.0,-999,0.00,,,0.15,,2013-04-20 14:42:00,
2013-04-20 09:22:00,34.0,-99.9,-100.00,North,-999,-999.0,-999.0,-999,0.00,,,0.14,,2013-04-20 15:22:00,
2013-04-20 09:34:00,34.0,-99.9,-100.00,North,-999,-999.0,-999.0,-999,0.00,,,0.14,,2013-04-20 15:34:00,
2013-04-20 09:43:00,34.0,-99.9,-100.00,North,-999,-999.0,-999.0,-999,0.00,,,0.14,,2013-04-20 15:43:00,
2013-04-20 10:23:00,35.0,-99.9,-100.00,North,-999,-999.0,-999.0,-999,0.02,,,0.17,,2013-04-20 16:23:00,
2013-04-20 10:33:00,35.0,-99.9,-100.00,North,-999,-999.0,-999.0,-999,0.02,,,0.17,,2013-04-20 16:33:00,
2013-04-20 10:42:00,35.0,-99.9,-100.00,North,-999,-999.0,-999.0,-999,0.02,,,0.17,,2013-04-20 16:42:00,
2013-04-20 11:23:00,40.0,-99.9,-100.00,North,-999,-999.0,-999.0,-999,0.01,,,0.18,,2013-04-20 17:23:00,
2013-04-20 11:33:00,40.0,-99.9,-100.00,North,-999,-999.0,-999.0,-999,0.01,,,0.18,,2013-04-20 17:33:00,
2013-04-20 11:42:00,40.0,-99.9,-100.00,North,-999,-999.0,-999.0,-999,0.01,,,0.18,,2013-04-20 17:42:00,
2013-04-20 12:22:00,44.0,-99.9,-100.00,North,-999,-999.0,-999.0,-999,0.04,,,0.22,,2013-04-20 18:22:00,
2013-04-20 12:32:00,44.0,-99.9,-100.00,North,-999,-999.0,-999.0,-999,0.04,,,0.22,,2013-04-20 18:32:00,
2013-04-20 12:42:00,44.0,-99.9,-100.00,North,-999,-999.0,-999.0,-999,0.04,,,0.22,,2013-04-20 18:42:00,
2013-04-20 13:22:00,45.0,-99.9,-100.00,North,-999,-999.0,-999.0,-999,0.01,,,0.23,,2013-04-20 19:22:00,
2013-04-20 13:32:00,45.0,-99.9,-100.00,North,-999,-999.0,-999.0,-999,0.01,,,0.23,,2013-04-20 19:32:00,
2013-04-20 13:42:00,45.0,-99.9,-100.00,North,-999,-999.0,-999.0,-999,0.01,,,0.23,,2013-04-20 19:42:00,
2013-04-20 14:22:00,45.0,-99.9,-100.00,North,-999,-999.0,-999.0,-999,0.02,,,0.24,,2013-04-20 20:22:00,
2013-04-20 14:32:00,45.0,-99.9,-100.00,North,-999,-999.0,-999.0,-999,0.02,,,0.24,,2013-04-20 20:32:00,
2013-04-20 14:42:00,45.0,-99.9,-100.00,North,-999,-999.0,-999.0,-999,0.02,,,0.24,,2013-04-20 20:42:00,
2013-04-20 15:22:00,32.0,-99.9,-100.00,North,-999,-999.0,-999.0,-999,0.06,,,0.30,,2013-04-20 21:22:00,
2013-04-20 15:33:00,32.0,-99.9,-100.00,North,-999,-999.0,-999.0,-999,0.06,,,0.30,,2013-04-20 21:33:00,
2013-04-20 15:43:00,32.0,-99.9,-100.00,North,-999,-999.0,-999.0,-999,0.06,,,0.30,,2013-04-20 21:43:00,
2013-04-20 17:22:00,38.0,-99.9,-100.00,North,-999,-999.0,-999.0,-999,-99.99,,,0.34,,2013-04-20 23:22:00,
2013-04-20 17:32:00,38.0,-99.9,-100.00,North,-999,-999.0,-999.0,-999,-99.99,,,0.34,,2013-04-20 23:32:00,
2013-04-20 17:42:00,38.0,-99.9,-100.00,North,-999,-999.0,-999.0,-999,-99.99,,,0.34,,2013-04-20 23:42:00,
2013-04-20 18:22:00,42.0,-99.9,-100.00,North,-999,-999.0,-999.0,-999,0.00,,,0.34,,2013-04-21 00:22:00,
2013-04-20 18:32:00,42.0,-99.9,-100.00,North,-999,-999.0,-999.0,-999,0.00,,,0.34,,2013-04-21 00:32:00,
2013-04-20 18:42:00,42.0,-99.9,-100.00,North,-999,-999.0,-999.0,-999,0.00,,,0.34,,2013-04-21 00:42:00,
2013-04-20 19:22:00,38.0,-99.9,-100.00,North,-999,-999.0,-999.0,-999,0.02,,,0.36,,2013-04-21 01:22:00,
2013-04-20 19:32:00,38.0,-99.9,-100.00,North,-999,-999.0,-999.0,-999,0.02,,,0.36,,2013-04-21 01:32:00,
2013-04-20 19:42:00,38.0,-99.9,-100.00,North,-999,-999.0,-999.0,-999,0.02,,,0.36,,2013-04-21 01:42:00,
2013-04-20 20:22:00,35.0,-99.9,-100.00,North,-999,-999.0,-999.0,-999,0.00,,,0.36,,2013-04-21 02:22:00,
2013-04-20 20:32:00,35.0,-99.9,-100.00,North,-999,-999.0,-999.0,-999,0.00,,,0.36,,2013-04-21 02:32:00,
2013-04-20 20:42:00,35.0,-99.9,-100.00,North,-999,-999.0,-999.0,-999,0.00,,,0.36,,2013-04-21 02:42:00,
2013-04-20 21:22:00,32.0,-99.9,-100.00,North,-999,-999.0,-999.0,-999,0.02,,,0.38,,2013-04-21 03:22:00,
2013-04-20 21:33:00,32.0,-99.9,-100.00,North,-999,-999.0,-999.0,-999,0.02,,,0.38,,2013-04-21 03:33:00,
2013-04-20 21:43:00,32.0,-99.9,-100.00,North,-999,-999.0,-999.0,-999,0.02,,,0.38,,2013-04-21 03:43:00,
2013-04-20 22:23:00,32.0,-99.9,-100.00,North,-999,-999.0,-999.0,-999,0.00,,,0.35,,2013-04-21 04:23:00,
2013-04-20 22:33:00,32.0,-99.9,-100.00,North,-999,-999.0,-999.0,-999,0.00,,,0.35,,2013-04-21 04:33:00,
2013-04-20 22:43:00,32.0,-99.9,-100.00,North,-999,-999.0,-999.0,-999,0.00,,,0.35,,2013-04-21 04:43:00,
2013-04-20 23:22:00,32.0,-99.9,-100.00,North,-999,-999.0,-999.0,-999,0.00,,,0.33,,2013-04-21 05:22:00,
2013-04-20 23:32:00,32.0,-99.9,-100.00,North,-999,-999.0,-999.0,-999,0.00,,,0.33,,2013-04-21 05:32:00,
2013-04-20 23:43:00,32.0,-99.9,-100.00,North,-999,-999.0,-999.0,-999,0.00,,,0.33,,2013-04-21 05:43:00,